This is the latest recevied weather packets stored in our database for station/object EA3GKP-7. If no packets are shown the sender has not sent any weather packets the latest 1 day(s).
| Time | Temp. | Humidity | Pressure | Rain* | Wind** | Luminosity | Snow |
|---|---|---|---|---|---|---|---|
| 1778084243 | 20.56° C | 60% | 1014.7 hPa | - | - | - | - |
| 1778083943 | 20.56° C | 60% | 1014.7 hPa | - | - | - | - |
| 1778083643 | 20.56° C | 56% | 1014.7 hPa | - | - | - | - |
| 1778083343 | 20.56° C | 55% | 1014.6 hPa | - | - | - | - |
| 1778082743 | 20.56° C | 54% | 1014.8 hPa | - | - | - | - |
| 1778082443 | 20.56° C | 53% | 1014.7 hPa | - | - | - | - |
| 1778082143 | 21.11° C | 53% | 1014.8 hPa | - | - | - | - |
| 1778081843 | 21.11° C | 52% | 1014.7 hPa | - | - | - | - |
| 1778081543 | 21.11° C | 52% | 1014.7 hPa | - | - | - | - |
| 1778081243 | 21.11° C | 51% | 1014.7 hPa | - | - | - | - |
| 1778080943 | 21.11° C | 51% | 1014.7 hPa | - | - | - | - |
| 1778080643 | 21.11° C | 51% | 1014.8 hPa | - | - | - | - |
| 1778080343 | 21.11° C | 51% | 1014.8 hPa | - | - | - | - |
| 1778080043 | 21.11° C | 51% | 1014.9 hPa | - | - | - | - |
| 1778079743 | 21.67° C | 52% | 1014.8 hPa | - | - | - | - |
| 1778079143 | 21.11° C | 49% | 1014.8 hPa | - | - | - | - |
| 1778078843 | 21.67° C | 48% | 1014.9 hPa | - | - | - | - |
| 1778078543 | 21.11° C | 48% | 1014.9 hPa | - | - | - | - |
| 1778077643 | 21.67° C | 48% | 1014.9 hPa | - | - | - | - |
| 1778077343 | 21.67° C | 47% | 1014.9 hPa | - | - | - | - |
| 1778076743 | 22.22° C | 47% | 1015 hPa | - | - | - | - |
| 1778076443 | 22.22° C | 49% | 1015 hPa | - | - | - | - |
| 1778073143 | 22.22° C | 42% | 1015.5 hPa | - | - | - | - |
| 1778065642 | 23.33° C | 40% | 1016 hPa | - | - | - | - |
| 1778063542 | 23.89° C | 43% | 1016.2 hPa | - | - | - | - |
* Rain since midnight (hover to see other rain measurements)
** Current wind speed in m/s (hover to see current wind gust speed)